Flag for U.S.A. Weather past 2 weeks in Grand Prairie, Texas, U.S.A.

Now
79 °F

Clear.


Feels Like: 81 °F
Forecast: 74 / 95 °F
Wind: 9 mph from South

Location: Grand Prairie Municipal Airport

Current Time: Aug 20, 2014 at 7:47:01 AM

Latest Report: Aug 20, 2014 at 6:50 AM


Visibility: 10 mi

Pressure: 29.94 "Hg

Humidity: 74%

Dew point: 70 °F

Location of Grand PrairieLocation

Historic Weather in Grand Prairie — Graph

°F

Grand Prairie temperature yesterday

Maximum temperature yesterday: 91 °F (at 3:50 PM)
Minimum temperature yesterday: 75 °F (at 6:50 AM)
Average temperature yesterday: 83 °F

Past Weeks' High & Low Weather Summary

 TemperatureHumidityPressure
High102 °F (Aug 8, 2:50 PM)100% (Aug 17, 8:50 AM)30.13 "Hg (Aug 17, 8:50 AM)
Low36 °F (Aug 18, 8:50 AM)10% (Aug 15, 3:50 PM)29.80 "Hg (Aug 7, 6:50 PM)
Average84 °F55%29.97 "Hg
* Reported Aug 5 6:15 AM — Aug 20 6:35 AM, Grand Prairie, Weather by CustomWeather, © 2014

Note: Actual official high and low records may vary slightly from our data, if they occured in-between our weather recording intervals... More about our weather records

Advertising

Grand Prairie weather history for previous 24 hours

 ConditionsComfort  
Time TempWeatherWind HumidityBarometerVisibility
6:35 AM
Aug 20
79 °FClear.9 mph71%29.93 "Hg10 mi
6:15 AM79 °FClear.8 mph71%29.93 "Hg10 mi
5:55 AM79 °FClear.8 mph70%29.92 "Hg10 mi
5:35 AM79 °FClear.8 mph69%29.92 "Hg10 mi
5:15 AM80 °FClear.8 mph68%29.91 "Hg10 mi
4:55 AM80 °FClear.9 mph68%29.91 "Hg10 mi
4:35 AM80 °FClear.10 mph66%29.91 "Hg10 mi
4:15 AM80 °FClear.10 mph68%29.91 "Hg10 mi
3:55 AM79 °FClear.10 mph71%29.91 "Hg10 mi
3:35 AM79 °FClear.9 mph71%29.90 "Hg10 mi
3:15 AM79 °FClear.10 mph71%29.90 "Hg10 mi
2:55 AM79 °FClear.10 mph71%29.91 "Hg10 mi
2:35 AM79 °FClear.9 mph71%29.91 "Hg10 mi
2:15 AM79 °FClear.9 mph71%29.91 "Hg10 mi
1:55 AM79 °FClear.8 mph71%29.91 "Hg10 mi
1:35 AM79 °FClear.10 mph70%29.91 "Hg10 mi
1:15 AM79 °FClear.10 mph72%29.91 "Hg10 mi
12:55 AM79 °FClear.8 mph69%29.91 "Hg10 mi
12:35 AM80 °FClear.8 mph68%29.91 "Hg10 mi
12:15 AM80 °FClear.12 mph66%29.91 "Hg10 mi
11:55 PM
Aug 19
80 °FClear.8 mph65%29.91 "Hg10 mi
11:35 PM81 °FClear.14 mph63%29.91 "Hg10 mi
11:15 PM82 °FClear.9 mph61%29.91 "Hg10 mi
10:55 PM82 °FClear.9 mph59%29.91 "Hg10 mi
10:35 PM83 °FClear.8 mph58%29.91 "Hg10 mi
10:15 PM84 °FClear.13 mph54%29.91 "Hg10 mi
9:55 PM85 °FClear.13 mph50%29.89 "Hg10 mi
9:35 PM88 °FClear.9 mph40%29.88 "Hg10 mi
9:15 PM89 °FClear.5 mph38%29.86 "Hg10 mi
8:55 PM89 °FSunny.6 mph40%29.86 "Hg10 mi
8:35 PM89 °FSunny.7 mph44%29.86 "Hg10 mi
8:15 PM89 °FSunny.5 mph45%29.86 "Hg10 mi
7:50 PM90 °FSunny.5 mph43%29.86 "Hg10 mi
6:50 PM90 °FSunny.7 mph43%29.85 "Hg10 mi
5:50 PM91 °FSunny.9 mph41%29.85 "Hg10 mi
4:50 PM90 °FSunny.7 mph46%29.88 "Hg10 mi
3:50 PM91 °FSunny.9 mph44%29.88 "Hg10 mi
2:50 PM90 °FSunny.7 mph46%29.90 "Hg10 mi
1:50 PM90 °FSunny.9 mph46%29.93 "Hg10 mi
12:50 PM90 °FSunny.No wind46%29.95 "Hg10 mi
11:50 AM82 °FSunny.9 mph58%29.95 "Hg10 mi
10:50 AM82 °FSunny.9 mph66%29.97 "Hg10 mi
9:50 AM82 °FSunny.9 mph66%29.95 "Hg10 mi
8:50 AM81 °FSunny.3 mph66%29.94 "Hg10 mi
7:50 AM75 °FClear.3 mph78%29.92 "Hg10 mi
Weather by CustomWeather, © 2014

See weather overviewHow to use our weather pages